EW1243 Weather Reports


time (UTC)temp
C
wind
direction
speed
KPH
gust
KPH
rain 1hr
cm
rain 24hr
cm
rain mn
cm
humidity
%
barometer
mb
20260504081557 11 355 0.0 4.8 0.00 0.64 0.61 92 1014.8
20260504044538 13 23 1.6 16.1 0.00 0.53 0.51 90 1013.1
20260504043041 13 318 3.2 16.1 0.03 0.53 0.51 91 1013.3
20260504041535 13 308 3.2 17.7 0.03 0.53 0.51 92 1013.1
20260504040034 13 320 4.8 17.7 0.03 0.53 0.51 91 1013.1
20260504034531 14 331 4.8 14.5 0.03 0.53 0.51 90 1013.0
20260504033029 14 333 6.4 20.9 0.00 0.51 0.51 89 1013.0
20260504031528 15 348 12.9 24.1 0.00 0.51 0.51 88 1012.8
20260504030027 15 313 11.3 20.9 0.00 0.51 0.51 89 1012.9
20260504024526 15 329 8.0 24.1 0.00 0.51 0.51 91 1012.9
20260504023025 15 273 6.4 17.7 0.03 0.51 0.51 92 1013.3
20260504021521 15 347 8.0 16.1 0.05 0.51 0.51 93 1013.6
20260504020021 15 360 3.2 20.9 0.05 0.51 0.51 93 1013.8
20260504014525 15 355 4.8 19.3 0.05 0.51 0.51 92 1013.9
20260504013018 15 314 4.8 22.5 0.00 0.48 0.46 91 1014.2
20260504011517 15 342 6.4 20.9 0.05 0.48 0.46 90 1014.3
20260504010016 15 22 6.4 24.1 0.05 0.48 0.46 91 1014.3
20260504004520 15 311 3.2 22.5 0.05 0.48 0.46 91 1014.6
20260504003015 15 314 11.3 27.4 0.05 0.48 0.46 90 1014.7
20260504001514 15 5 9.7 25.7 0.03 0.43 0.43 91 1014.7
20260504000013 15 331 9.7 20.9 0.03 0.43 0.43 92 1014.5
20260503234512 15 5 3.2 20.9 0.05 0.43 0.43 93 1014.5
20260503233017 15 350 11.3 25.7 0.13 0.43 0.41 93 1014.5
20260503231510 15 355 3.2 22.5 0.13 0.43 0.41 94 1014.6
20260503230010 15 338 3.2 14.5 0.13 0.43 0.41 94 1014.7
20260503224509 15 5 1.6 16.1 0.10 0.41 0.38 94 1014.7
20260503223007 -17 0.0 0.0 0.00 0.30 0.28 1014.6
20260503221501 -17 0.0 0.0 0.00 0.30 0.28 1014.7
20260503220100 -17 0.0 0.0 0.00 0.30 0.28 1014.7
20260503214555 -17 0.0 0.0 0.00 0.30 0.28 1014.6
20260503213051 -17 0.0 0.0 0.00 0.30 0.28 1014.5
20260503211546 -17 0.0 0.0 0.00 0.30 0.28 1014.5
20260503210042 -17 0.0 0.0 0.00 0.30 0.28 1014.4
20260503204539 -17 0.0 0.0 0.00 0.30 0.28 1014.2
20260503203042 -17 0.0 0.0 0.00 0.30 0.28 1014.0
20260503201529 -17 0.0 0.0 0.00 0.30 0.28 1014.0
20260503200024 -17 0.0 0.0 0.00 0.30 0.28 1014.0
20260503194522 -17 0.0 0.0 0.03 0.30 0.28 1014.0
20260503193016 -17 0.0 0.0 0.05 0.30 0.28 1014.0
20260503191510 -17 0.0 0.0 0.05 0.30 0.28 1014.2
20260503190008 -17 0.0 0.0 0.05 0.30 0.28 1014.4
20260503184510 14 20 0.0 0.0 0.00 0.25 0.23 94 1014.5
20260503183002 14 20 0.0 0.0 0.00 0.25 0.23 94 1014.7
20260503181559 14 20 0.0 1.6 0.03 0.25 0.23 94 1014.8
20260503181503 14 20 0.0 1.6 0.05 0.25 0.23 94 1014.8
20260503180107 14 20 0.0 4.8 0.05 0.25 0.23 94 1014.9
20260503180000 14 20 0.0 4.8 0.05 0.25 0.23 94 1014.8
20260503174601 14 21 1.6 9.7 0.05 0.25 0.23 94 1014.7
20260503173109 14 5 1.6 9.7 0.05 0.25 0.23 93 1014.8
20260503171555 14 351 1.6 9.7 0.05 0.23 0.23 93 1015.0
20260503170122 14 27 0.0 4.8 0.03 0.20 0.18 93 1015.4